Location: D�nning
(49.2479°N, 12.8491°E)
Time: 06:17:03
(UTC+00:00)

NOSS 2-2 (D) - Pass Details

Date: 18 September 2020
Orbit: 469 x 1739 km, 63.3° (Epoch: 23 October)

Event Time Altitude Azimuth Distance (km) Brightness Sun altitude
Rises 19:21:14 0° 232° (SW) 2,501 7.0 -20.6°
Reaches altitude 10° 19:23:16 10° 237° (WSW) 1,638 6.1 -20.9°
Maximum altitude 19:26:45 57° 317° (NW) 604 3.7 -21.4°
Drops below altitude 10° 19:30:47 10° 37° (NE) 1,900 6.0 -22.0°
Enters shadow 19:32:21 - 40° (NE) 2,555 6.6 -22.2°
